{"data":{"norad_id":65422,"epoch":"2026-05-24T23:28:49.949760Z","epoch_age_seconds":76853,"freshness":"FRESH","line1":"1 65422U 25192U   26144.97835590  .00021867  00000+0  74813-3 0  9990","line2":"2 65422  53.1551 238.0403 0001387  90.3859 269.7301 15.30204479 41068","mean_motion":15.30204479,"eccentricity":0.0001387,"inclination_deg":53.1551,"raan_deg":238.0403,"arg_perigee_deg":90.3859,"mean_anomaly_deg":269.7301,"bstar":0.00074813,"rev_number":4106,"period_min":94.10507025447,"perigee_km":474.25113788816,"apogee_km":476.15225404242,"semimajor_km":6853.3386959653,"source":"CELESTRAK","updated_at":"2026-05-25T13:38:20.803116Z"}}